[[{"header":{"parameterUnit":"m.s-1","parameterCategory":1,"la1":30.2991,"la2":30.254,"lo1":-89.0895,"lo2":-89.0444,"dy":0.0017,"dx":0.0017,"nx":28,"ny":28,"refTime":"2024-02-02T03:00:00:Z","depth":0,"parameterNumber":2,"parameterNumberName":"U-component_of_WINDS"},"data":[0,0,0,0,0,0,0,0,0,0,0,0,0,0,0,0,0,0,0,0,0,0,0,0,0,0,0,0,0,0,0,0,0,0,0,0,0,0,0,0,0,0,0,0,0,0,0,0,0,0,0,0,0,0,0,0,0,0,-0.8517,-0.8516,0,-0.8443,-0.8443,-0.8442,-0.837,-0.8369,-0.8368,-0.8368,-0.8292,-0.8291,-0.8289,0,0,0,0,0,0,0,0,0,0,0,0,0,-0.8596,-0.8595,-0.8517,-0.8516,-0.8515,-0.8443,-0.8442,-0.8441,-0.837,-0.8369,-0.8368,-0.8367,-0.8292,-0.8291,-0.8289,0,0,0,0,0,0,0,0,0,0,0,0,0,-0.8546,-0.8594,-0.8517,-0.8471,-0.8466,-0.8444,-0.8442,-0.8441,-0.8371,-0.8369,-0.8368,-0.8367,-0.8293,-0.8291,-0.8289,-0.8306,0,0,-0.8284,-0.8283,0,0,0,0,0,0,0,0,-0.8549,-0.8543,-0.8479,-0.8474,-0.8469,-0.8415,-0.8442,-0.8396,-0.8371,-0.8407,-0.8367,-0.8366,-0.8334,-0.8328,-0.8318,-0.8303,-0.8299,-0.8284,-0.8283,-0.8282,-0.8281,0,0,0,0,0,0,0,-0.8552,-0.8546,-0.8488,-0.8478,-0.8472,-0.8454,-0.8445,-0.8433,-0.8379,-0.8404,-0.8398,-0.8391,-0.8331,-0.832,-0.8315,-0.8298,-0.8284,-0.8282,-0.8281,-0.828,-0.8295,-0.8296,0,0,0,0,0,0,-0.8563,-0.8549,-0.849,-0.8485,-0.8506,-0.8454,-0.8444,-0.8433,-0.8379,-0.8369,-0.8392,-0.8388,-0.8323,-0.8317,-0.8312,-0.833,-0.8282,-0.828,-0.8279,-0.8294,-0.8295,-0.8297,0,0,0,0,0,0,-0.8565,-0.8558,-0.8493,-0.8516,-0.8506,-0.8454,-0.8442,-0.8433,-0.8421,-0.837,-0.836,-0.839,-0.8322,-0.8315,-0.8309,-0.8326,-0.8279,-0.8278,-0.8292,-0.8294,-0.8296,-0.8364,0,0,0,0,0,0,-0.8567,-0.8559,-0.8565,-0.8517,-0.8505,-0.849,-0.8443,-0.8432,-0.8419,-0.8412,-0.8366,-0.8357,-0.832,-0.8312,-0.8307,-0.8323,-0.8277,-0.829,-0.8293,-0.8295,-0.836,-0.8368,-0.8375,0,0,0,0,0,-0.8571,-0.8587,-0.8566,-0.8559,-0.8511,-0.8491,-0.8485,-0.8443,-0.842,-0.8426,-0.8393,-0.8358,-0.8325,-0.8312,-0.8306,-0.8321,-0.8289,-0.8292,-0.8295,-0.8356,-0.8366,-0.8375,0,0,0,0,0,0,-0.8638,-0.8579,-0.8555,-0.8556,-0.853,-0.8479,-0.8485,-0.8454,-0.8433,-0.8428,-0.8376,-0.8366,-0.8366,-0.8343,-0.8329,-0.8336,-0.8302,-0.8304,-0.8351,-0.836,-0.8367,-0.8373,-0.8275,0,0,0,0,0,-0.8653,-0.8642,-0.8591,-0.8597,-0.8585,-0.8538,-0.8527,-0.8497,-0.8467,-0.8455,-0.8422,-0.8394,-0.8377,-0.8367,-0.8349,-0.8356,-0.8346,-0.8364,-0.8372,-0.8378,-0.8381,-0.8384,-0.8392,-0.8307,-0.8307,-0.8307,0,0,-0.8683,-0.865,-0.8646,-0.8609,-0.8585,-0.8575,-0.8528,-0.8519,-0.8511,-0.8454,-0.8446,-0.8421,-0.8386,-0.8388,-0.8386,-0.8368,-0.8402,-0.8383,-0.8388,-0.8387,-0.8388,-0.8396,-0.8404,-0.831,-0.8309,-0.8309,0,0,-0.8734,-0.8708,-0.871,-0.8687,-0.8651,-0.862,-0.8621,-0.8576,-0.8557,-0.8549,-0.8506,-0.8496,-0.8468,-0.8446,-0.8431,-0.8475,-0.8443,-0.8471,-0.8511,-0.8515,-0.8521,-0.8527,-0.8544,-0.855,-0.8474,-0.8474,-0.8474,0,-0.8776,-0.8759,-0.8715,-0.8709,-0.8695,-0.8643,-0.8645,-0.8625,-0.8585,-0.8577,-0.8557,-0.8522,-0.8495,-0.8491,-0.8502,-0.8492,-0.8491,-0.8476,-0.8524,-0.8529,-0.8534,-0.8549,-0.8555,-0.8477,-0.8477,-0.8477,-0.8476,0,-0.8814,-0.8803,-0.8809,-0.8773,-0.8759,-0.8758,-0.8713,-0.8705,-0.8677,-0.8648,-0.8641,-0.8607,-0.8582,-0.8579,-0.855,-0.8571,-0.8561,-0.8534,-0.8499,-0.8546,-0.856,-0.8565,-0.8483,-0.8481,-0.848,-0.8479,0,0,-0.8903,-0.8844,-0.8847,-0.883,-0.8788,-0.8779,-0.8776,-0.8751,-0.8746,-0.872,-0.8716,-0.8695,-0.867,-0.8653,-0.8622,-0.8626,-0.8665,-0.8598,-0.8596,-0.8612,-0.8686,-0.8707,-0.8715,-0.8643,-0.8644,-0.8645,-0.8689,0,-0.8947,-0.8937,-0.8898,-0.8901,-0.8891,-0.8843,-0.884,-0.8814,-0.8788,-0.8776,-0.8746,-0.8732,-0.87,-0.869,-0.8691,-0.866,-0.8679,-0.8656,-0.864,-0.864,-0.865,-0.8722,-0.8743,-0.8787,-0.8694,-0.8695,-0.8696,0,-0.8996,-0.8975,-0.8977,-0.8936,-0.8931,-0.8929,-0.8904,-0.8893,-0.8864,-0.8844,-0.8827,-0.8793,-0.8787,-0.8755,-0.8747,-0.8733,-0.8724,-0.8708,-0.8709,-0.8705,-0.867,-0.8721,-0.8799,-0.8806,-0.8704,-0.8703,-0.8702,0,-0.9062,-0.9034,-0.9032,-0.9019,-0.8972,-0.8972,-0.8952,-0.8921,-0.8909,-0.8888,-0.888,-0.8859,-0.8847,-0.8831,-0.8793,-0.8773,-0.879,-0.8754,-0.8774,-0.8775,-0.8779,-0.8779,-0.8858,-0.8773,-0.8773,-0.8773,-0.8773,0,-0.9114,-0.9118,-0.9061,-0.906,-0.9062,-0.9018,-0.9021,-0.8997,-0.897,-0.8964,-0.8921,-0.8916,-0.8865,-0.8855,-0.8824,-0.8823,-0.8818,-0.8802,-0.8794,-0.8806,-0.8808,-0.8799,-0.8795,-0.8775,-0.8774,-0.8774,-0.8774,0,-0.9188,-0.915,-0.9145,-0.9101,-0.909,-0.9094,-0.9056,-0.9054,-0.9026,-0.9018,-0.9014,-0.8969,-0.8955,-0.8915,-0.889,-0.887,-0.8877,-0.8862,-0.8887,-0.8882,-0.8904,-0.8903,-0.8979,-0.8988,-0.8899,-0.8899,-0.89,0,-0.9224,-0.9225,-0.9182,-0.9175,-0.9158,-0.9147,-0.9135,-0.9092,-0.9082,-0.9049,-0.9051,-0.9033,-0.9016,-0.8995,-0.8961,-0.8942,-0.8926,-0.8954,-0.8923,-0.8935,-0.8927,-0.8928,-0.8928,-0.8961,-0.8962,-0.8963,-0.8964,0,-0.9292,-0.9274,-0.9259,-0.9239,-0.9226,-0.9208,-0.9187,-0.9184,-0.9135,-0.9126,-0.9111,-0.9099,-0.9074,-0.9057,-0.9033,-0.9013,-0.8981,-0.8975,-0.8978,-0.899,-0.9005,-0.8998,-0.8906,-0.8973,-0.8972,-0.8971,-0.8971,-0.8971,-0.9348,-0.9348,-0.9318,-0.9303,-0.9283,-0.9265,-0.9261,-0.9233,-0.922,-0.9197,-0.9172,-0.916,-0.9132,-0.9097,-0.9079,-0.9069,-0.9052,-0.9057,-0.9058,-0.906,-0.9066,-0.9007,-0.9065,-0.9064,-0.9064,-0.9064,-0.9064,0,-0.9414,-0.9393,-0.9381,-0.9353,-0.9342,-0.9314,-0.929,-0.9283,-0.9273,-0.9249,-0.9235,-0.9218,-0.9202,-0.9167,-0.9148,-0.9147,-0.9132,-0.9144,-0.9143,-0.914,-0.9082,-0.9081,-0.9156,-0.9156,-0.9156,-0.9156,-0.9156,-0.9156,-0.9448,-0.9446,-0.9425,-0.9413,-0.9392,-0.938,-0.9369,-0.9353,-0.9334,-0.9318,-0.9305,-0.9282,-0.9255,-0.9233,-0.9218,-0.9208,-0.9203,-0.922,-0.9205,-0.9152,-0.9143,-0.9135,-0.9134,-0.9219,-0.9219,-0.9263,-0.9264,-0.9264]},{"header":{"parameterUnit":"m.s-1","parameterCategory":1,"la1":30.2991,"la2":30.254,"lo1":-89.0895,"lo2":-89.0444,"dy":0.0017,"dx":0.0017,"nx":28,"ny":28,"refTime":"2024-02-02T03:00:00:Z","depth":0,"parameterNumber":3,"parameterNumberName":"V-component_of_WINDS"},"data":[0,0,0,0,0,0,0,0,0,0,0,0,0,0,0,0,0,0,0,0,0,0,0,0,0,0,0,0,0,0,0,0,0,0,0,0,0,0,0,0,0,0,0,0,0,0,0,0,0,0,0,0,0,0,0,0,0,0,0.5903,0.5903,0,0.585,0.585,0.5849,0.5845,0.5845,0.5846,0.5846,0.579,0.5788,0.5786,0,0,0,0,0,0,0,0,0,0,0,0,0,0.5998,0.5997,0.5903,0.5903,0.5902,0.5851,0.585,0.5849,0.5844,0.5845,0.5846,0.5846,0.579,0.5788,0.5785,0,0,0,0,0,0,0,0,0,0,0,0,0,0.5952,0.5996,0.5903,0.5894,0.5892,0.5851,0.585,0.5849,0.5844,0.5845,0.5846,0.5847,0.5791,0.5788,0.5785,0.5749,0,0,0.5776,0.5774,0,0,0,0,0,0,0,0,0.5955,0.5949,0.5896,0.5894,0.5892,0.5855,0.5863,0.5815,0.5844,0.5862,0.5846,0.5847,0.5811,0.5806,0.5794,0.5746,0.5744,0.5775,0.5774,0.5772,0.5771,0,0,0,0,0,0,0,0.5958,0.5951,0.5882,0.5895,0.5893,0.5891,0.5886,0.5854,0.5832,0.5861,0.586,0.5854,0.581,0.5797,0.5793,0.5743,0.5776,0.5773,0.5771,0.577,0.5664,0.5663,0,0,0,0,0,0,0.5963,0.5954,0.5884,0.5881,0.5927,0.5889,0.5882,0.5866,0.5833,0.5828,0.5854,0.5854,0.5802,0.5796,0.5791,0.5746,0.5772,0.5769,0.5768,0.5665,0.5663,0.5662,0,0,0,0,0,0,0.5966,0.5957,0.5886,0.5917,0.5908,0.5886,0.5868,0.5865,0.5852,0.5827,0.5823,0.5845,0.5802,0.5795,0.576,0.5744,0.5768,0.5765,0.5666,0.5664,0.5663,0.5657,0,0,0,0,0,0,0.5968,0.5958,0.5945,0.5917,0.5906,0.5857,0.5867,0.5863,0.5847,0.5847,0.5818,0.5813,0.5802,0.5764,0.5757,0.5741,0.5763,0.5667,0.5665,0.5663,0.5659,0.5656,0.5653,0,0,0,0,0,0.5972,0.5945,0.5944,0.5935,0.5889,0.5856,0.585,0.5838,0.5846,0.5832,0.5816,0.5814,0.5747,0.5761,0.5752,0.5735,0.5668,0.5666,0.5663,0.566,0.5656,0.5653,0,0,0,0,0,0,0.597,0.5941,0.594,0.5903,0.5882,0.5855,0.5837,0.5835,0.581,0.5811,0.5798,0.5791,0.5756,0.5742,0.5757,0.5698,0.5708,0.5704,0.5709,0.5705,0.5702,0.5706,0.576,0,0,0,0,0,0.5966,0.5942,0.5917,0.5887,0.5876,0.5859,0.5844,0.5837,0.5814,0.5805,0.5786,0.5764,0.5738,0.5721,0.5695,0.5657,0.565,0.5641,0.5638,0.5636,0.5632,0.5611,0.5607,0.5655,0.5655,0.5655,0,0,0.5956,0.5937,0.5922,0.5886,0.5869,0.5844,0.5851,0.5824,0.5805,0.58,0.5766,0.5752,0.5726,0.5689,0.5672,0.5676,0.5618,0.5633,0.5632,0.5629,0.5608,0.5604,0.56,0.5654,0.5654,0.5654,0,0,0.5925,0.5908,0.5881,0.5864,0.5839,0.5827,0.5821,0.5794,0.5785,0.5751,0.5747,0.5724,0.5679,0.5661,0.5646,0.5609,0.5606,0.5601,0.5586,0.5566,0.5562,0.5558,0.5545,0.554,0.5597,0.5597,0.5597,0,0.5915,0.5878,0.5867,0.5841,0.5825,0.5821,0.5793,0.5777,0.5744,0.5733,0.5739,0.5683,0.5665,0.5624,0.5615,0.5603,0.5595,0.5604,0.5563,0.556,0.5556,0.5543,0.5538,0.5597,0.5597,0.5597,0.5597,0,0.5867,0.5842,0.5823,0.5792,0.5774,0.5747,0.5733,0.5715,0.571,0.5698,0.5663,0.5642,0.5612,0.5602,0.5596,0.556,0.5563,0.5566,0.5576,0.5551,0.5539,0.5534,0.5596,0.5596,0.5596,0.5597,0,0,0.5833,0.5798,0.5791,0.5777,0.5749,0.5729,0.5702,0.5673,0.5659,0.5637,0.5613,0.5576,0.5579,0.5562,0.5554,0.5536,0.5508,0.5541,0.554,0.5535,0.5466,0.5464,0.5458,0.5507,0.5506,0.5505,0.5468,0,0.5799,0.5751,0.5741,0.5699,0.5675,0.5671,0.5648,0.5628,0.5615,0.5593,0.5579,0.5553,0.5559,0.5549,0.5531,0.5515,0.5494,0.5518,0.5484,0.5483,0.549,0.5452,0.5449,0.5415,0.5463,0.5463,0.5462,0,0.5752,0.5729,0.5686,0.5661,0.5651,0.563,0.5603,0.5582,0.5559,0.5552,0.5533,0.5527,0.5498,0.551,0.547,0.5487,0.5472,0.5463,0.5461,0.5457,0.547,0.5446,0.5404,0.5399,0.5454,0.5455,0.5455,0,0.5731,0.5689,0.5658,0.5646,0.5617,0.5602,0.5589,0.5568,0.5551,0.5528,0.5518,0.5491,0.5476,0.5456,0.5443,0.5453,0.5404,0.5414,0.5396,0.5396,0.5385,0.5386,0.534,0.5377,0.5377,0.5377,0.5377,0,0.5693,0.5666,0.5648,0.5629,0.5599,0.5588,0.5558,0.5545,0.5526,0.5503,0.5498,0.5477,0.5462,0.5439,0.5429,0.5397,0.539,0.5383,0.538,0.5383,0.5384,0.5373,0.5374,0.5376,0.5376,0.5376,0.5377,0,0.5664,0.5651,0.5616,0.5592,0.5585,0.5564,0.5543,0.5523,0.5512,0.5484,0.5476,0.5458,0.543,0.5416,0.5381,0.5374,0.5338,0.5337,0.5346,0.5345,0.5327,0.5329,0.5272,0.5264,0.5307,0.5306,0.5306,0,0.564,0.562,0.5593,0.5579,0.5565,0.5541,0.5525,0.5514,0.5497,0.547,0.5454,0.5426,0.5403,0.5359,0.5342,0.5316,0.5314,0.5296,0.5309,0.5313,0.5313,0.5314,0.5312,0.5293,0.5293,0.5292,0.5292,0,0.56,0.5594,0.5572,0.5547,0.5528,0.5508,0.5487,0.5475,0.546,0.5442,0.5414,0.5396,0.5362,0.5334,0.5306,0.5292,0.5289,0.5288,0.5282,0.5284,0.529,0.5286,0.5339,0.5289,0.5289,0.529,0.529,0.529,0.5572,0.5554,0.5533,0.5508,0.5492,0.5473,0.5454,0.544,0.5417,0.5388,0.5383,0.5353,0.5331,0.5294,0.5279,0.5256,0.5259,0.5251,0.5249,0.5247,0.5246,0.5295,0.5251,0.5251,0.5251,0.5251,0.5251,0,0.5531,0.5518,0.5495,0.5467,0.5447,0.5448,0.5426,0.5409,0.5383,0.5363,0.5341,0.5309,0.5283,0.5264,0.5237,0.5222,0.522,0.5215,0.5216,0.5212,0.5244,0.5252,0.5217,0.5217,0.5217,0.5217,0.5217,0.5217,0.5507,0.5476,0.5469,0.543,0.5416,0.5388,0.5375,0.5358,0.5342,0.5307,0.5285,0.5274,0.5254,0.5226,0.5201,0.5196,0.5186,0.5181,0.5176,0.5206,0.521,0.5213,0.522,0.518,0.518,0.5146,0.5146,0.5146]}]]